Notices

What's New in latest Release from April 7th, 2021:

- Updated Glossary, including Speed of Maximum Gust, and Total Hourly Precipitation

- Updated national and regional climate services offices contacts and prices information

- Addition of station inventory lists for 1981-2010, 1971-2000, and 1961-1990 Normals.

If you haven't already, please take our survey and provide feedback about our website: https://eccc.sondage-survey.ca/f/LanguageSelection.aspx?s=442ca660-fcf1-47c0-95a9-59707d6fd709

Hourly Data Report for January 08, 2021

OTTAWA INTL A
ONTARIO
Current Station Operator: NAVCAN

45°19'00.000" N
75°40'00.000" W
114.90 m
6106001
71628
YOW

Download Data

Hourly Data (January 2021)
Hourly Data Report for January 8, 2021
TIME
LST
Temp Definition
°C
Dew Point Definition
°C
Rel Hum Definition
%
Precip. Amount Definition
mm

Wind Dir Definition
10's deg

Wind Spd Definition
km/h
Visibility Definition
km
Stn Press Definition
kPa
Hmdx Definition


Wind Chill Definition


Weather Definition


00:00 -6.8 -9.3 83   31 23 24.1 101.04   -14 LegendNANA
01:00 -7.5 -9.3 87   29 16 6.4 100.99   -14 Snow Showers
02:00 -8.6 -10.2 88   30 15 4.8 101.01   -15 Snow Showers
03:00 -9.1 -11.0 86   30 17 12.9 101.01   -16 Snow Showers
04:00 -9.4 -11.6 84   30 17 16.1 101.00   -16 Snow Showers
05:00 -9.9 -12.4 82   31 21 16.1 100.96   -18 Snow Showers
06:00 -11.0 -13.2 84   30 15 8.1 100.95   -18 Snow Showers
07:00 -11.9 -13.5 88   31 17 16.1 100.98   -20 Snow
08:00 -12.2 -14.2 85   30 12 24.1 100.96   -19 LegendNANA
09:00 -11.1 -13.6 82   28 16 24.1 100.95   -18 LegendNANA
10:00 -10.5 -13.6 78   28 15 24.1 100.94   -17 Clear
11:00 -9.3 -13.3 73   27 17 24.1 100.84   -16 LegendNANA
12:00 -8.1 -13.1 68   30 19 24.1 100.73   -15 LegendNANA
13:00 -7.3 -13.3 63   30 17 24.1 100.64   -14 Clear
14:00 -6.5 -13.1 60   29 16 24.1 100.59   -13 LegendNANA
15:00 -6.2 -13.3 58   29 15 24.1 100.57   -12 LegendNANA
16:00 -6.4 -13.6 57   29 20 24.1 100.56   -13 Clear
17:00 -7.8 -13.5 64   30 19 24.1 100.58   -15 LegendNANA
18:00 -9.1 -13.9 68   31 10 24.1 100.60   -14 LegendNANA
19:00 -8.7 -14.1 65   32 17 24.1 100.60   -16 Clear
20:00 -8.9 -14.7 63   32 16 24.1 100.56   -16 LegendNANA
21:00 -8.7 -14.3 64   32 24 24.1 100.56   -17 LegendNANA
22:00 -7.2 -13.2 63   32 24 24.1 100.48   -15 Clear
23:00 -7.6 -13.5 63   32 18 24.1 100.48   -14 LegendNANA

Notes on Data Quality.

Legend

  • E = Estimated
  • M = Missing
  • NA = Not Available*
  • [empty] = Indicates an unobserved value
Date modified: